Date String (YYYY-MM-DD hh:mm:ss) UTC,Instrument flags,absolute air pressure of the measurement (hPa),sample flow rate (lpm),inlet stack bypass flow (lpm),air temperature of the measurement (°C),ambient temperature measured by the external sensor (°C),aerosol sample conditioner tube jacket temperature (°C),OPC LED temperature (°C),internal box temperature (°C),relative humidity of the measurement (%),span deviation,mass concentration of particles derived from Lorenz-Mie calculation of OPC scattering (μg/m³),mass concentration of particles derived from Lorenz-Mie calculation of OPC scattering (μg/m³),mass concentration of particles derived from Lorenz-Mie calculation of OPC scattering (μg/m³)
DateTimeUTC,F1_M11,P_M11,Q1_M11,Q2_M11,T1_M11,T2_M11,T3_M11,T4_M11,T5_M11,U1_M11,ZSPAN_M11,X0_M11,X2_M11,X1_M11
2023-07-30 22:00:00,SystemResetWarning,0835.1,4.99,000.00,029.3,026.7,000.0,037.5,030.5,31.6,0000.0,0016.68,0007.04,0005.78
2023-07-30 22:01:00,SystemResetWarning,0835.2,4.99,000.00,029.3,027.1,000.0,037.5,030.6,31.6,0000.0,0016.31,0007.07,0005.80
2023-07-30 22:02:00,SystemResetWarning,0834.9,5.00,000.00,029.4,026.9,000.0,037.5,030.6,31.3,0000.0,0015.99,0007.09,0005.80
2023-07-30 22:03:00,SystemResetWarning,0835.0,5.00,000.00,029.3,025.7,000.0,037.4,030.4,32.0,0000.0,0016.53,0007.10,0005.82
2023-07-30 22:04:00,SystemResetWarning,0834.8,5.01,000.00,029.3,025.2,000.0,037.3,030.2,33.1,0000.0,0017.97,0007.08,0005.82
2023-07-30 22:05:00,SystemResetWarning,0834.7,5.01,000.00,029.2,025.4,000.0,037.3,030.2,32.2,0000.0,0017.91,0007.08,0005.84
2023-07-30 22:06:00,SystemResetWarning,0834.9,5.00,000.00,029.1,025.8,000.0,037.3,030.2,31.7,0000.0,0017.37,0007.05,0005.84
2023-07-30 22:07:00,SystemResetWarning,0834.6,5.00,000.00,029.1,026.3,000.0,037.4,030.3,31.9,0000.0,0017.12,0007.02,0005.83
2023-07-30 22:08:00,SystemResetWarning,0834.9,5.00,000.00,029.1,026.7,000.0,037.4,030.4,32.1,0000.0,0017.14,0007.07,0005.84
2023-07-30 22:09:00,SystemResetWarning,0834.6,5.00,000.00,029.2,027.1,000.0,037.4,030.6,31.9,0000.0,0017.44,0007.12,0005.84
2023-07-30 22:10:00,SystemResetWarning,0834.6,4.99,000.00,029.2,027.0,000.0,037.4,030.6,31.7,0000.0,0017.14,0007.14,0005.84
2023-07-30 22:11:00,SystemResetWarning,0834.6,4.98,000.00,029.2,025.8,000.0,037.3,030.4,32.2,0000.0,0018.56,0007.15,0005.82
2023-07-30 22:12:00,SystemResetWarning,0834.7,5.01,000.00,029.1,025.3,000.0,037.2,030.2,32.4,0000.0,0019.29,0007.15,0005.80
2023-07-30 22:13:00,SystemResetWarning,0834.6,5.02,000.00,029.1,025.4,000.0,037.2,030.1,32.5,0000.0,0019.35,0007.10,0005.77
2023-07-30 22:14:00,SystemResetWarning,0834.6,4.99,000.00,029.0,025.8,000.0,037.3,030.2,32.7,0000.0,0018.75,0007.07,0005.76
2023-07-30 22:15:00,SystemResetWarning,0834.8,4.99,000.00,029.0,026.3,000.0,037.3,030.3,32.1,0000.0,0017.37,0007.05,0005.75
2023-07-30 22:16:00,SystemResetWarning,0834.6,5.01,000.00,029.0,026.7,000.0,037.3,030.4,32.5,0000.0,0016.30,0007.00,0005.75
2023-07-30 22:17:00,SystemResetWarning,0834.8,5.01,000.00,029.1,027.2,000.0,037.3,030.5,32.4,0000.0,0015.79,0006.95,0005.74
2023-07-30 22:18:00,SystemResetWarning,0835.0,4.99,000.00,029.1,027.0,000.0,037.3,030.6,31.7,0000.0,0015.77,0006.91,0005.74
2023-07-30 22:19:00,SystemResetWarning,0834.8,4.98,000.00,029.1,025.8,000.0,037.2,030.3,31.7,0000.0,0015.66,0006.85,0005.72
2023-07-30 22:20:00,SystemResetWarning,0834.9,5.02,000.00,029.0,025.3,000.0,037.1,030.2,32.4,0000.0,0015.18,0006.75,0005.71
2023-07-30 22:21:00,SystemResetWarning,0834.8,5.00,000.00,029.0,025.4,000.0,037.1,030.1,31.9,0000.0,0014.41,0006.69,0005.71
2023-07-30 22:22:00,SystemResetWarning,0834.9,4.99,000.00,028.9,025.8,000.0,037.2,030.2,32.3,0000.0,0012.98,0006.65,0005.72
2023-07-30 22:23:00,SystemResetWarning,0834.7,5.00,000.00,028.9,026.3,000.0,037.2,030.3,32.1,0000.0,0011.82,0006.62,0005.73
2023-07-30 22:24:00,SystemResetWarning,0834.6,5.01,000.00,029.0,026.7,000.0,037.2,030.4,32.2,0000.0,0011.15,0006.63,0005.75
2023-07-30 22:25:00,SystemResetWarning,0834.6,5.01,000.00,029.0,027.0,000.0,037.2,030.5,30.6,0000.0,0011.29,0006.67,0005.75
2023-07-30 22:26:00,SystemResetWarning,0834.7,4.99,000.00,029.0,026.2,000.0,037.2,030.3,30.1,0000.0,0011.46,0006.68,0005.75
2023-07-30 22:27:00,SystemResetWarning,0834.9,5.00,000.00,028.9,025.2,000.0,037.1,030.1,30.0,0000.0,0011.73,0006.70,0005.74
2023-07-30 22:28:00,SystemResetWarning,0834.9,5.01,000.00,028.9,025.2,000.0,037.0,030.0,27.6,0000.0,0012.22,0006.73,0005.73
2023-07-30 22:29:00,SystemResetWarning,0834.9,4.99,000.00,028.8,025.5,000.0,037.1,030.0,29.2,0000.0,0011.78,0006.67,0005.72
2023-07-30 22:30:00,SystemResetWarning,0834.9,5.00,000.00,028.8,025.9,000.0,037.1,030.1,30.1,0000.0,0011.71,0006.68,0005.73
2023-07-30 22:31:00,SystemResetWarning,0834.7,5.01,000.00,028.8,026.4,000.0,037.1,030.3,28.8,0000.0,0011.90,0006.70,0005.73
2023-07-30 22:32:00,SystemResetWarning,0834.8,5.00,000.00,028.9,026.9,000.0,037.1,030.4,30.0,0000.0,0012.10,0006.73,0005.71
2023-07-30 22:33:00,SystemResetWarning,0834.7,4.99,000.00,028.9,027.2,000.0,037.1,030.5,29.1,0000.0,0012.14,0006.72,0005.71
2023-07-30 22:34:00,SystemResetWarning,0835.0,4.99,000.00,028.9,026.3,000.0,037.0,030.4,28.2,0000.0,0012.13,0006.73,0005.70
2023-07-30 22:35:00,SystemResetWarning,0834.9,5.00,000.00,028.8,025.3,000.0,037.0,030.1,28.6,0000.0,0011.96,0006.69,0005.68
2023-07-30 22:36:00,SystemResetWarning,0834.5,5.01,000.00,028.8,025.2,000.0,036.9,030.0,28.9,0000.0,0012.12,0006.67,0005.67
2023-07-30 22:37:00,SystemResetWarning,0834.5,5.01,000.00,028.7,025.5,000.0,037.0,030.0,28.4,0000.0,0012.24,0006.65,0005.67
2023-07-30 22:38:00,SystemResetWarning,0834.6,5.00,000.00,028.7,026.0,000.0,037.0,030.1,28.5,0000.0,0012.41,0006.66,0005.66
2023-07-30 22:39:00,SystemResetWarning,0834.5,5.00,000.00,028.7,026.4,000.0,037.0,030.3,28.8,0000.0,0012.19,0006.61,0005.65
2023-07-30 22:40:00,SystemResetWarning,0834.5,5.00,000.00,028.8,026.9,000.0,037.0,030.4,29.4,0000.0,0012.51,0006.69,0005.65
2023-07-30 22:41:00,SystemResetWarning,0834.5,5.00,000.00,028.8,026.7,000.0,037.0,030.4,28.5,0000.0,0012.90,0006.72,0005.63
2023-07-30 22:42:00,SystemResetWarning,0834.5,4.98,000.00,028.8,025.5,000.0,036.9,030.2,28.4,0000.0,0013.45,0006.73,0005.62
2023-07-30 22:43:00,SystemResetWarning,0834.5,5.02,000.00,028.7,025.0,000.0,036.9,030.0,28.4,0000.0,0013.43,0006.71,0005.63
2023-07-30 22:44:00,SystemResetWarning,0834.5,5.00,000.00,028.7,025.3,000.0,036.9,030.0,28.5,0000.0,0014.34,0006.73,0005.61
2023-07-30 22:45:00,SystemResetWarning,0834.5,4.99,000.00,028.6,025.7,000.0,036.9,030.0,28.0,0000.0,0014.25,0006.72,0005.59
2023-07-30 22:46:00,SystemResetWarning,0834.5,5.00,000.00,028.7,026.1,000.0,036.9,030.2,27.8,0000.0,0014.20,0006.67,0005.54
2023-07-30 22:47:00,SystemResetWarning,0834.5,5.01,000.00,028.7,026.6,000.0,037.0,030.3,27.4,0000.0,0014.57,0006.58,0005.46
2023-07-30 22:48:00,SystemResetWarning,0834.5,5.00,000.00,028.7,027.0,000.0,037.0,030.4,26.9,0000.0,0015.88,0006.55,0005.41
2023-07-30 22:49:00,SystemResetWarning,0834.5,4.98,000.00,028.8,026.8,000.0,037.0,030.4,26.5,0000.0,0016.04,0006.50,0005.36
2023-07-30 22:50:00,SystemResetWarning,0834.5,5.00,000.00,028.7,025.6,000.0,036.9,030.2,26.1,0000.0,0016.10,0006.48,0005.30
2023-07-30 22:51:00,SystemResetWarning,0834.4,5.01,000.00,028.7,025.1,000.0,036.8,030.0,26.7,0000.0,0016.21,0006.42,0005.25
2023-07-30 22:52:00,SystemResetWarning,0834.4,5.00,000.00,028.6,025.3,000.0,036.8,029.9,27.0,0000.0,0016.07,0006.35,0005.20
2023-07-30 22:53:00,SystemResetWarning,0834.4,4.99,000.00,028.6,025.7,000.0,036.9,030.0,28.7,0000.0,0015.89,0006.36,0005.16
2023-07-30 22:54:00,SystemResetWarning,0834.4,5.00,000.00,028.6,026.2,000.0,036.9,030.1,29.9,0000.0,0016.75,0006.34,0005.11
2023-07-30 22:55:00,SystemResetWarning,0834.4,5.00,000.00,028.7,026.6,000.0,036.9,030.3,32.2,0000.0,0016.07,0006.29,0005.06
2023-07-30 22:56:00,SystemResetWarning,0834.4,5.01,000.00,028.7,027.0,000.0,036.9,030.4,32.3,0000.0,0016.89,0006.25,0005.03
2023-07-30 22:57:00,SystemResetWarning,0834.4,5.00,000.00,028.8,026.8,000.0,036.9,030.4,31.2,0000.0,0016.88,0006.25,0005.03
2023-07-30 22:58:00,SystemResetWarning,0834.4,4.98,000.00,028.7,025.5,000.0,036.8,030.1,31.8,0000.0,0016.26,0006.29,0005.07
2023-07-30 22:59:00,SystemResetWarning,0834.3,5.00,000.00,028.6,025.1,000.0,036.8,030.0,31.1,0000.0,0014.80,0006.31,0005.08
